Location: Beetenbrück
(52.8113°N, 9.5946°E)
Time: 20:51:24
(UTC+00:00)

Cosmos 1535 Rocket - Pass Details

Date: 14 April 2026
Orbit: 948 x 1003 km, 83.0° (Epoch: 12 May)

Event Time Altitude Azimuth Distance (km) Brightness Sun altitude
Exits shadow 21:56:51 51° 199° (SSW) 1,188 4.6 -24.9°
Maximum altitude 21:58:33 83° 281° (W) 964 4.4 -25.0°
Drops below altitude 10° 22:04:44 10° 9° (N) 2,696 7.6 -25.4°
Sets 22:07:15 0° 11° (N) 3,651 8.4 -25.5°
